Wind_Speed
46 45 38 37 38 36 36 36 35 36 35 32 32 36 38 43 48 49 47 44 44 43 44 45 46 47 47 46 44 43 42 40 39 38 36 37 38 43
41 42 37 36 36 35 34 33 33 33 34 35 38 42 44 45 45 45 43 43 44 45 47 47 47 46 45 43 40 36 36 36 35 35 34 34 37 39
35 34 34 35 34 33 31 31 31 33 36 35 38 41 42 42 42 42 43 44 44 44 43 42 40 39 38 38 36 35 34 35 35 34 35 35 36 37
33 34 34 34 33 32 31 32 32 34 37 38 38 38 38 40 43 43 41 39 40 38 37 36 35 35 36 37 38 37 36 36 36 36 36 37 37 38
36 35 35 33 33 32 32 33 34 36 37 37 37 38 39 38 38 38 36 36 34 34 34 36 37 36 36 34 35 36 36 36 36 37 37 39 39 38
38 37 36 34 33 32 32 33 34 36 35 35 37 37 36 34 35 36 32 33 30 31 32 32 31 31 31 32 31 31 31 32 31 33 32 35 37 38
37 37 36 34 33 33 33 34 34 34 33 35 34 34 34 33 33 33 32 29 27 26 26 24 28 28 27 27 26 27 28 29 29 29 29 26 30 35
36 36 35 33 32 32 33 33 33 31 33 33 33 34 34 34 32 31 31 28 23 21 23 16 25 22 24 23 20 23 26 26 25 25 27 29 30 32
35 34 33 32 32 31 30 31 29 30 31 32 33 33 32 32 32 30 28 26 21 20 24 17 22 21 22 22 23 22 23 23 23 25 27 28 29 27
35 33 32 31 30 28 30 28 26 27 28 29 30 30 30 30 29 29 28 24 18 15 21 24 22 24 24 22 21 20 20 21 24 24 24 19 19 19
35 33 32 31 28 28 29 26 25 24 25 26 27 27 28 29 29 29 26 24 17 13 16 23 18 21 21 19 18 16 17 20 25 26 25 27 22 22
35 32 31 31 28 28 28 25 24 23 23 23 24 26 28 28 28 28 27 24 19 13 13 16 20 24 26 17 15 16 18 23 19 27 27 28 27 28
34 32 31 30 27 28 28 25 24 22 21 21 21 23 25 26 26 25 25 25 19 16 14 20 21 21 27 25 8 15 16 19 12 14 24 27 30 31
33 31 31 29 28 27 28 26 24 22 21 20 21 22 23 24 24 22 22 22 21 18 15 15 16 21 25 22 10 10 14 8 12 9 9 16 22 20
32 32 32 30 30 26 28 27 25 23 21 21 21 21 22 23 24 22 20 21 20 19 17 14 13 18 23 25 12 10 11 13 8 7 6 9 13 13
33 31 31 32 33 29 29 28 25 24 22 21 20 21 22 22 22 23 19 19 18 17 21 19 17 18 20 21 15 9 10 11 11 13 7 4 4 7
36 33 29 32 38 30 28 28 25 24 22 23 21 22 22 22 21 22 21 19 20 17 14 19 19 19 18 16 17 8 9 11 14 13 10 10 6 7
35 34 31 31 31 28 28 27 26 24 22 23 21 21 21 21 19 20 20 19 19 18 15 14 15 15 15 13 14 10 6 11 11 9 3 11 15 12
33 30 29 28 27 25 27 24 23 23 23 22 20 21 21 20 18 19 19 18 17 18 16 13 10 11 11 10 10 8 2 2 6 7 7 5 4 12
29 28 32 30 24 23 27 23 22 22 22 21 19 20 20 19 17 17 19 17 16 16 14 13 10 7 9 8 6 5 2 2 2 6 8 8 6 2
27 31 27 27 27 23 28 24 22 21 21 21 19 19 19 18 16 16 17 16 15 14 13 11 9 5 5 7 4 2 1 3 3 2 2 6 8 7
25 26 24 29 28 24 25 24 23 20 20 20 20 20 19 17 14 15 15 14 13 13 12 9 6 2 1 4 6 3 3 1 1 2 3 1 6 7
25 24 24 23 23 25 25 22 21 21 21 20 21 20 19 16 14 13 14 13 10 11 10 8 5 2 3 2 4 6 3 5 2 5 4 4 3 3
Wind_Direction
301 298 296 299 300 298 299 299 300 298 297 296 290 289 287 287 290 292 293 294 294 292 290 287 286 285 284 283 281 279 276 272 268 265 258 256 253 249
296 294 299 301 303 301 298 298 299 297 296 294 292 292 291 293 295 296 297 297 296 293 291 288 286 286 286 284 281 278 274 270 266 263 260 254 255 252
302 304 305 304 303 303 300 299 300 299 298 297 295 295 298 300 298 299 300 298 295 293 290 288 287 285 284 282 281 277 273 271 268 263 259 254 251 254
308 309 310 310 307 306 307 307 305 303 299 300 300 300 301 302 303 303 301 300 297 295 292 290 286 284 283 281 280 278 274 270 268 263 258 255 251 251
313 315 316 314 313 311 308 306 304 303 302 303 304 304 306 307 304 301 301 299 298 295 294 292 290 289 287 284 279 276 274 271 266 263 258 253 251 247
315 314 313 313 312 308 305 304 304 303 304 304 306 308 309 307 304 303 301 300 298 293 293 293 296 295 292 286 281 278 275 273 268 262 258 252 248 246
311 310 311 311 308 306 304 305 305 304 306 306 311 311 311 309 308 308 309 305 303 301 296 304 297 295 293 293 288 277 274 275 272 261 254 248 248 246
308 308 308 308 304 303 303 304 304 306 307 311 314 315 314 312 312 312 312 313 311 302 297 311 303 311 301 298 290 278 275 277 268 259 254 248 250 252
306 304 306 305 303 303 304 305 305 307 310 315 318 316 317 315 315 318 317 316 315 311 307 319 319 319 312 300 292 286 282 273 255 261 259 253 252 256
304 303 304 303 302 304 307 306 303 306 311 313 316 317 318 317 317 320 320 317 317 312 304 315 319 320 312 302 293 289 291 278 246 251 249 251 248 262
300 301 302 302 299 304 308 304 303 306 309 313 316 319 321 322 320 322 322 317 314 309 299 312 333 337 330 306 291 294 298 288 262 253 248 244 256 270
298 298 298 299 297 303 307 302 301 303 306 311 317 324 326 322 319 321 323 322 315 317 310 314 331 330 331 334 293 292 298 297 283 254 254 253 255 271
295 294 294 294 294 299 303 302 297 299 299 306 316 324 327 325 322 321 320 321 315 312 313 316 336 329 331 332 282 278 301 303 301 271 246 249 261 271
293 291 291 291 292 295 299 302 293 292 295 301 310 319 326 331 328 322 318 319 314 306 305 317 335 335 334 334 303 273 286 343 293 294 280 249 249 245
291 286 284 290 294 294 297 299 289 289 292 296 304 313 322 330 335 333 324 321 318 300 293 286 308 316 335 344 319 278 310 312 307 284 250 291 258 230
289 283 278 282 292 293 292 293 288 284 285 288 297 306 317 323 334 337 331 324 316 303 290 287 285 307 320 336 330 276 284 317 315 313 310 337 175 190
286 283 272 259 278 286 285 287 285 277 281 282 290 300 310 319 329 335 333 326 325 314 296 277 281 284 301 323 342 309 265 282 310 321 347 61 96 133
284 282 278 273 276 279 278 282 281 272 276 279 285 295 304 313 324 332 332 329 325 321 316 301 273 269 285 302 328 335 278 270 281 303 327 44 109 122
286 283 282 280 278 275 273 277 275 267 270 277 282 290 299 307 319 329 334 329 325 326 323 322 297 267 258 284 330 348 315 280 254 251 288 290 85 121
288 278 273 281 275 276 269 272 271 263 265 271 277 284 292 301 315 325 331 329 329 328 324 322 316 283 251 253 306 1 31 48 236 236 242 258 261 252
292 290 275 276 268 266 275 267 267 265 262 266 272 279 286 295 308 320 328 328 334 332 333 330 325 306 259 231 237 297 308 20 90 94 250 229 241 232
293 291 284 271 272 257 269 273 267 260 260 264 269 274 279 285 300 315 322 326 333 337 338 332 333 305 236 219 215 224 244 264 268 311 0 119 189 215
284 287 287 282 270 254 259 272 268 263 254 254 261 265 271 277 288 304 315 323 331 339 338 337 333 243 201 212 211 211 245 236 295 307 282 235 193 151
Height
3058 3053 3049 3045 3039 3034 3030 3025 3021 3015 3013 3010 3007 3003 3001 2998 2994 2989 2984 2980 2976 2972 2969 2966 2962 2958 2956 2955 2954 2953 2952 2952 2953 2953 2955 2955 2957 2959
3048 3044 3039 3035 3031 3027 3021 3017 3014 3009 3005 3003 2999 2995 2990 2987 2982 2977 2972 2968 2963 2960 2956 2953 2950 2946 2943 2941 2941 2942 2941 2941 2942 2943 2944 2946 2946 2948
3040 3036 3031 3026 3022 3019 3014 3009 3005 3001 2998 2996 2991 2985 2980 2975 2971 2967 2961 2957 2952 2948 2944 2940 2938 2935 2933 2931 2930 2931 2931 2930 2931 2932 2933 2936 2938 2939
3033 3028 3023 3019 3014 3009 3004 3000 2997 2993 2989 2985 2982 2977 2972 2966 2960 2955 2951 2947 2941 2938 2934 2930 2928 2926 2924 2922 2920 2920 2920 2920 2920 2921 2923 2925 2927 2929
3024 3019 3014 3009 3005 3001 2997 2994 2990 2985 2981 2976 2971 2967 2962 2957 2951 2946 2943 2939 2934 2929 2925 2921 2919 2916 2914 2912 2910 2909 2909 2909 2909 2909 2911 2914 2916 2919
3016 3011 3006 3002 2998 2994 2991 2987 2983 2978 2973 2968 2964 2959 2954 2949 2943 2937 2936 2930 2927 2922 2918 2913 2910 2907 2905 2902 2900 2899 2899 2899 2899 2899 2900 2902 2905 2907
3008 3004 2999 2996 2992 2988 2984 2980 2975 2971 2966 2961 2957 2951 2947 2942 2936 2931 2925 2923 2919 2913 2910 2909 2902 2900 2897 2894 2891 2890 2889 2889 2889 2890 2892 2893 2895 2897
3001 2996 2992 2989 2985 2981 2977 2973 2968 2963 2959 2954 2950 2944 2940 2934 2929 2924 2919 2915 2912 2907 2904 2905 2896 2894 2890 2887 2885 2883 2882 2882 2882 2882 2884 2885 2887 2889
2993 2989 2986 2982 2978 2974 2970 2966 2961 2957 2952 2947 2943 2938 2933 2928 2923 2918 2913 2908 2905 2902 2896 2898 2893 2890 2885 2882 2879 2877 2877 2875 2875 2876 2878 2879 2880 2882
2986 2982 2978 2974 2970 2967 2963 2959 2955 2951 2946 2942 2938 2933 2928 2923 2918 2913 2908 2903 2901 2898 2893 2891 2889 2885 2881 2877 2874 2872 2871 2869 2870 2871 2872 2874 2875 2877
2978 2975 2971 2967 2963 2960 2956 2952 2949 2945 2942 2938 2934 2929 2924 2918 2913 2908 2904 2899 2897 2896 2892 2887 2886 2880 2877 2873 2869 2868 2867 2865 2864 2866 2867 2868 2870 2869
2970 2967 2963 2960 2956 2953 2950 2946 2943 2940 2937 2933 2929 2924 2919 2914 2909 2904 2899 2895 2892 2891 2888 2885 2882 2877 2872 2870 2867 2865 2863 2860 2858 2858 2860 2861 2863 2862
2962 2959 2955 2952 2950 2946 2943 2940 2937 2935 2932 2929 2925 2921 2916 2911 2905 2901 2896 2891 2888 2886 2885 2881 2878 2875 2870 2865 2864 2862 2860 2857 2854 2852 2853 2855 2855 2856
2953 2951 2947 2944 2942 2940 2936 2933 2931 2929 2926 2924 2920 2917 2912 2907 2902 2897 2892 2888 2884 2882 2881 2879 2876 2873 2868 2863 2861 2860 2858 2855 2853 2851 2849 2850 2850 2850
2944 2942 2939 2937 2935 2932 2929 2926 2924 2922 2920 2918 2916 2912 2908 2904 2898 2893 2889 2884 2881 2878 2877 2876 2873 2871 2867 2863 2859 2858 2856 2855 2853 2851 2849 2848 2847 2847
2935 2932 2930 2928 2926 2925 2922 2919 2917 2916 2915 2913 2911 2908 2904 2900 2895 2890 2886 2882 2878 2875 2872 2871 2870 2869 2866 2862 2857 2856 2856 2854 2853 2850 2850 2846 2845 2846
2923 2921 2920 2920 2918 2917 2914 2912 2910 2909 2908 2907 2906 2903 2900 2896 2892 2887 2882 2878 2874 2871 2869 2866 2865 2865 2864 2861 2858 2855 2854 2854 2853 2852 2851 2848 2846 2847
2912 2911 2910 2910 2909 2908 2906 2904 2903 2903 2902 2901 2900 2898 2895 2892 2888 2884 2879 2875 2872 2868 2865 2863 2862 2861 2860 2860 2857 2854 2853 2852 2852 2853 2853 2851 2850 2851
2902 2901 2901 2900 2900 2899 2898 2897 2896 2896 2895 2895 2894 2893 2890 2888 2884 2880 2877 2873 2869 2865 2862 2860 2858 2857 2858 2858 2857 2854 2852 2852 2852 2853 2853 2853 2853 2855
2894 2892 2892 2892 2891 2891 2889 2889 2889 2889 2889 2889 2888 2887 2886 2884 2881 2877 2874 2871 2867 2864 2860 2857 2855 2854 2855 2856 2856 2855 2854 2853 2853 2853 2854 2855 2855 2856
2885 2883 2882 2882 2882 2882 2882 2881 2882 2882 2882 2882 2882 2882 2881 2879 2877 2874 2871 2868 2865 2862 2859 2856 2854 2853 2853 2854 2856 2855 2855 2855 2855 2855 2855 2856 2856 2858
2877 2874 2873 2873 2873 2874 2874 2874 2874 2875 2876 2876 2876 2876 2875 2875 2873 2871 2868 2866 2863 2860 2858 2855 2853 2853 2853 2853 2854 2855 2856 2856 2856 2856 2856 2857 2858 2859
2869 2867 2866 2864 2864 2866 2867 2867 2867 2868 2868 2869 2870 2870 2870 2870 2869 2868 2866 2864 2862 2859 2857 2855 2853 2852 2852 2853 2854 2855 2855 2856 2856 2856 2856 2857 2858 2859